Terminal Aerodrome Forecast
Issued by NWS Key West, FL

Home | Current Version | Previous Version | Text Only | Print | Product List | Glossary On
Versions: 1 2 3 4 5 6 7 8 9 10 11 12 13 14 15 16 17 18 19 20 21 22 23 24 25 26 27 28 29 30 31 32 33 34 35 36
000
FTUS42 KKEY 261100
TAFEYW
TAF
KEYW 261124Z 2612/2712 13009KT P6SM FEW020=

USA.gov is the U.S. government's official web portal to all federal, state and local government web resources and services.